FLOCK 3M-2 (42998 NORAD) Tracking and Keplerian Element Data

This shows tracking and keplerian element data for the satellite.

Feedback or suggestion? Click here.




ElementValue
Catalog42998
NameFLOCK 3M-2
Epoch Orbit21543
Epoch Day261.52356468
Epoch Year2021
RAAN9.3181
Inclination97.4295
Eccentricity0.0011623
Argument of Perigee304.558
Mean Anonmoly55.456
Mean Motion15.2388928
Decay Rate2.061E-05
L11 42998U 17068M 21261.52356468 .00002061 00000-0 88229-4 0 9997
L22 42998 97.4295 9.3181 0011623 304.5580 55.4560 15.23889280215436

Live tracking and technical data element details for FLOCK 3M-2 (NORAD 42998). FLOCK 3M-2 can be tracked NOW for your location showing map with azimuth and elevation plus other details from your city location.

Track the satellite on the map from your city or location and see movement details for azimuth, elevation, latitude, longitude, range, height, and movement on the map or in text.







IsCatalogInMostPopularTable: catalog: 42998, numindb: 584
Update: records affected: 1



GetName: 42998 FLOCK 3M-2

Hit Count: updated at: Sat, 25 Sep 2021 23:54:30 GMT